Terminal Aerodrome Forecast
Issued by NWS Des Moines, IA

Home | Current Version | Previous Version | Text Only | Print | Product List | Glossary On
Versions: 1 2 3 4 5 6 7 8 9 10 11 12 13 14 15 16 17 18 19 20 21 22 23 24 25 26 27 28 29 30 31 32 33 34 35 36 37 38 39 40 41 42 43 44 45 46 47 48 49 50
000
FTUS43 KDMX 181120
TAFDSM
TAF
KDSM 181120Z 1812/1912 VRB03KT P6SM BKN080
     FM181300 VRB04KT P6SM VCSH BKN060
     FM182300 36004KT P6SM VCTS SCT040CB OVC080
     FM190300 VRB03KT P6SM OVC035
     FM190700 VRB03KT P6SM OVC030=

USA.gov is the U.S. government's official web portal to all federal, state and local government web resources and services.